Regional Weather Roundup
Issued by NWS State College, PA

Home | Current Version | Previous Version | Graphics & Text | Print | Product List | Glossary Off
Versions: 1 2 3 4 5 6 7 8 9 10 11 12 13 14 15 16 17 18 19 20 21 22 23 24 25 26 27 28 29 30 31 32 33 34 35 36 37 38 39 40 41 42 43 44 45 46 47 48 49 50

000
ASUS41 KCTP 310503
RWRCTP

REGIONAL WEATHER ROUNDUP
NATIONAL WEATHER SERVICE STATE COLLEGE PA
100 AM EDT MON AUG 31 2015

Note: "fair" indicates few or no clouds below 12,000 feet with no
significant weather and/or obstructions to visibility.

* = STATION THAT DOES NOT REPORT PRECIPITATION /E.G. RAIN...SNOW...ETC/
    THUNDER OR FOG.

PAZ002>004-007>009-013>016-020>023-029>032-310600-
WESTERN PENNSYLVANIA

CITY           SKY/WX    TMP DP  RH WIND       PRES   REMARKS
ERIE           CLEAR     71  65  81 S6        30.05R
MEADVILLE      PTCLDY    70  66  87 S5        30.10S
FRANKLIN*      PTCLDY    66  64  94 SW7       30.13R
NEW CASTLE     FAIR      70  67  90 CALM      30.11R
BEAVER COUNTY  NOT AVBL
BUTLER*        MOCLDY    66  64  94 S5        30.13R
PITTSBURGH INT MOCLDY    72  64  76 CALM      30.11R
PITTSBURGH     MOCLDY    71  63  75 S6        30.11S
INDIANA*       PTCLDY    68  66  94 CALM      30.15S
LATROBE        NOT AVBL
WASHINGTON CO* MOCLDY    64  64 100 CALM      30.12S
$$

PAZ004>006-010>012-017>019-024>028-033>037-041-042-045-046-049>053-310600-
CENTRAL PENNSYLVANIA

CITY           SKY/WX    TMP DP  RH WIND       PRES   REMARKS
BRADFORD       CLEAR     62  60  93 CALM      30.13S
DUBOIS         MOCLDY    69  65  86 CALM      30.12S FOG
CLEARFIELD     PTCLDY    65  63  93 CALM      30.12F
JOHNSTOWN      CLOUDY    69  61  75 SW7       30.16F
ALTOONA        CLOUDY    71  61  70 S5        30.13S
STATE COLLEGE  CLOUDY    71  66  84 CALM      30.11R
WILLIAMSPORT   CLOUDY    71  68  90 N3        30.06S
SELINSGROVE    MOCLDY    68  67  96 S3        30.07S FOG
FT INDIANTOWN  CLOUDY    73  66  78 SW3       30.07S
CAPITAL CITY   CLOUDY    74  65  73 CALM      30.06F
HARRISBURG     CLOUDY    75  66  73 CALM      30.06S
YORK           CLOUDY    70  67  90 CALM      30.07F
$$

PAZ038>040-043-044-047-048-054-055-060>062-067>071-310600-
EASTERN PENNSYLVANIA

CITY           SKY/WX    TMP DP  RH WIND       PRES   REMARKS
SCRANTON       MOCLDY    72  66  81 SW3       30.07S
MOUNT POCONO   CLOUDY    68  64  87 NW5       30.12S
ALLENTOWN      CLOUDY    72  67  84 W3        30.06S
QUAKERTOWN*    CLOUDY    72  66  83 CALM      30.08S
READING        CLOUDY    76  66  71 SW5       30.06S
LANCASTER      CLOUDY    75  66  73 CALM      30.07F
COATESVILLE    CLOUDY    73  72  94 W5        30.10S
POTTSTOWN      CLOUDY    73  69  87 CALM      30.09S
BLUE BELL      CLOUDY    77  70  78 CALM      30.07S
DOYLESTOWN     CLOUDY    73  67  81 S3        30.06F
WILLOW GROVE   NOT AVBL
NORTH PHILA    CLOUDY    80  64  58 SW9       30.07F
PHILADELPHIA   CLOUDY    79  65  62 SW10      30.07F
$$


USA.gov is the U.S. government's official web portal to all federal, state and local government web resources and services.